Time,TemperatureF,DewpointF,PressureIn,WindDirection,WindDirectionDegrees,WindSpeedMPH,WindSpeedGustMPH,Humidity,HourlyPrecipIn,Conditions,Clouds,dailyrainin,SoftwareType,DateUTC
2013-03-22 00:04:00,65.2,59.0,29.60,South,174,5.0,15.0,79,0.00,,,0.00,weatherlink.com 1.10,2013-03-22 05:04:00,
2013-03-22 00:19:00,65.3,59.0,29.60,SE,126,12.0,20.0,80,0.00,,,0.00,weatherlink.com 1.10,2013-03-22 05:19:00,
2013-03-22 00:34:00,65.4,59.0,29.60,SSW,200,5.0,18.0,80,0.00,,,0.00,weatherlink.com 1.10,2013-03-22 05:34:00,
2013-03-22 00:49:00,65.5,59.0,29.59,SSW,212,13.0,18.0,80,0.00,,,0.00,weatherlink.com 1.10,2013-03-22 05:49:00,
2013-03-22 01:04:00,65.5,60.0,29.59,South,170,8.0,21.0,81,0.00,,,0.00,weatherlink.com 1.10,2013-03-22 06:04:00,
2013-03-22 01:19:00,65.6,60.0,29.59,SSW,205,10.0,22.0,81,0.00,,,0.00,weatherlink.com 1.10,2013-03-22 06:19:00,
2013-03-22 01:34:00,65.7,60.0,29.59,SSE,166,7.0,20.0,81,0.00,,,0.00,weatherlink.com 1.10,2013-03-22 06:34:00,
2013-03-22 01:50:00,65.8,60.0,29.59,SSE,152,14.0,18.0,81,0.00,,,0.00,weatherlink.com 1.10,2013-03-22 06:50:00,
2013-03-22 02:05:00,65.8,60.0,29.59,SE,127,7.0,15.0,81,0.00,,,0.00,weatherlink.com 1.10,2013-03-22 07:05:00,
2013-03-22 02:20:00,65.8,60.0,29.59,SSE,152,11.0,17.0,81,0.00,,,0.00,weatherlink.com 1.10,2013-03-22 07:20:00,
2013-03-22 02:35:00,65.8,60.0,29.58,SSE,163,10.0,17.0,82,0.00,,,0.00,weatherlink.com 1.10,2013-03-22 07:35:00,
2013-03-22 02:50:00,65.8,60.0,29.58,SSE,160,12.0,17.0,82,0.00,,,0.00,weatherlink.com 1.10,2013-03-22 07:50:00,
2013-03-22 03:05:00,65.8,60.0,29.58,SSW,193,6.0,16.0,82,0.00,,,0.00,weatherlink.com 1.10,2013-03-22 08:05:00,
2013-03-22 03:20:00,65.8,60.0,29.58,SSW,203,8.0,14.0,82,0.00,,,0.00,weatherlink.com 1.10,2013-03-22 08:20:00,
2013-03-22 03:35:00,65.7,60.0,29.58,SSE,153,7.0,16.0,82,0.00,,,0.00,weatherlink.com 1.10,2013-03-22 08:35:00,
2013-03-22 03:50:00,65.7,60.0,29.57,SSW,203,8.0,20.0,82,0.00,,,0.00,weatherlink.com 1.10,2013-03-22 08:50:00,
2013-03-22 04:05:00,65.3,60.0,29.57,SSE,160,5.0,13.0,83,0.00,,,0.00,weatherlink.com 1.10,2013-03-22 09:05:00,
2013-03-22 04:20:00,65.2,60.0,29.58,SSE,151,3.0,11.0,83,0.00,,,0.00,weatherlink.com 1.10,2013-03-22 09:20:00,
2013-03-22 04:35:00,65.3,60.0,29.57,SSW,198,7.0,11.0,83,0.00,,,0.00,weatherlink.com 1.10,2013-03-22 09:35:00,
2013-03-22 04:50:00,65.2,60.0,29.57,SSW,211,12.0,12.0,84,0.00,,,0.00,weatherlink.com 1.10,2013-03-22 09:50:00,
2013-03-22 05:05:00,65.2,60.0,29.57,SSW,207,8.0,13.0,84,0.00,,,0.00,weatherlink.com 1.10,2013-03-22 10:05:00,
2013-03-22 05:20:00,65.1,60.0,29.57,SW,224,7.0,13.0,84,0.00,,,0.00,weatherlink.com 1.10,2013-03-22 10:20:00,
2013-03-22 05:35:00,64.8,60.0,29.58,SSW,198,5.0,12.0,85,0.00,,,0.00,weatherlink.com 1.10,2013-03-22 10:35:00,
2013-03-22 05:50:00,64.7,61.0,29.60,SW,214,2.0,9.0,86,0.00,,,0.00,weatherlink.com 1.10,2013-03-22 10:50:00,
2013-03-22 06:05:00,64.8,61.0,29.61,SSE,155,4.0,8.0,86,0.00,,,0.00,weatherlink.com 1.10,2013-03-22 11:05:00,
2013-03-22 06:20:00,64.7,61.0,29.61,SSE,163,4.0,7.0,86,0.00,,,0.00,weatherlink.com 1.10,2013-03-22 11:20:00,
2013-03-22 06:35:00,64.7,61.0,29.62,SSW,210,4.0,7.0,86,0.00,,,0.00,weatherlink.com 1.10,2013-03-22 11:35:00,
2013-03-22 06:50:00,64.4,60.0,29.63,South,179,3.0,4.0,86,0.00,,,0.00,weatherlink.com 1.10,2013-03-22 11:50:00,
2013-03-22 07:05:00,64.0,60.0,29.64,ESE,110,1.0,6.0,87,0.00,,,0.00,weatherlink.com 1.10,2013-03-22 12:05:00,
2013-03-22 07:20:00,63.5,60.0,29.65,SSE,152,2.0,4.0,88,0.00,,,0.00,weatherlink.com 1.10,2013-03-22 12:20:00,
2013-03-22 07:35:00,63.1,60.0,29.66,South,169,2.0,4.0,89,0.00,,,0.00,weatherlink.com 1.10,2013-03-22 12:35:00,
2013-03-22 07:50:00,63.1,60.0,29.67,SSW,207,1.0,4.0,90,0.00,,,0.00,weatherlink.com 1.10,2013-03-22 12:50:00,
2013-03-22 08:05:00,59.0,49.0,29.70,NNW,343,3.0,16.0,70,0.00,,,0.00,weatherlink.com 1.10,2013-03-22 13:05:00,
2013-03-22 08:20:00,54.7,44.0,29.71,NNE,16,12.0,16.0,67,0.00,,,0.00,weatherlink.com 1.10,2013-03-22 13:20:00,
2013-03-22 08:35:00,52.3,43.0,29.73,ENE,60,8.0,16.0,71,0.00,,,0.00,weatherlink.com 1.10,2013-03-22 13:35:00,
2013-03-22 08:50:00,51.4,43.0,29.74,SSE,159,5.0,12.0,74,0.00,,,0.00,weatherlink.com 1.10,2013-03-22 13:50:00,
2013-03-22 09:06:00,50.8,43.0,29.75,NW,325,7.0,16.0,75,0.00,,,0.00,weatherlink.com 1.10,2013-03-22 14:06:00,
2013-03-22 09:21:00,50.2,43.0,29.75,NE,35,4.0,13.0,77,0.00,,,0.00,weatherlink.com 1.10,2013-03-22 14:21:00,
2013-03-22 09:36:00,50.1,44.0,29.76,NE,37,11.0,13.0,78,0.00,,,0.00,weatherlink.com 1.10,2013-03-22 14:36:00,
2013-03-22 10:06:00,50.1,44.0,29.77,NE,48,4.0,10.0,79,0.00,,,0.00,weatherlink.com 1.10,2013-03-22 15:06:00,
2013-03-22 10:21:00,50.0,44.0,29.78,NE,44,5.0,10.0,80,0.00,,,0.00,weatherlink.com 1.10,2013-03-22 15:21:00,
2013-03-22 10:36:00,50.2,44.0,29.78,NNW,338,5.0,10.0,80,0.00,,,0.00,weatherlink.com 1.10,2013-03-22 15:36:00,
2013-03-22 10:51:00,50.2,44.0,29.78,NNE,20,10.0,11.0,79,0.00,,,0.00,weatherlink.com 1.10,2013-03-22 15:51:00,
2013-03-22 11:06:00,50.0,44.0,29.79,North,11,6.0,11.0,80,0.00,,,0.00,weatherlink.com 1.10,2013-03-22 16:06:00,
2013-03-22 11:21:00,50.1,44.0,29.79,NNE,32,2.0,11.0,79,0.00,,,0.00,weatherlink.com 1.10,2013-03-22 16:21:00,
2013-03-22 11:36:00,49.7,44.0,29.79,North,8,7.0,11.0,80,0.00,,,0.00,weatherlink.com 1.10,2013-03-22 16:36:00,
2013-03-22 11:51:00,49.5,44.0,29.79,NW,313,3.0,10.0,81,0.00,,,0.00,weatherlink.com 1.10,2013-03-22 16:51:00,
2013-03-22 12:06:00,48.9,44.0,29.79,NNE,18,5.0,13.0,83,0.00,,,0.00,weatherlink.com 1.10,2013-03-22 17:06:00,
2013-03-22 12:21:00,49.0,44.0,29.80,NNE,30,5.0,10.0,83,0.00,,,0.00,weatherlink.com 1.10,2013-03-22 17:21:00,
2013-03-22 12:36:00,48.6,44.0,29.80,North,359,2.0,12.0,84,0.00,,,0.00,weatherlink.com 1.10,2013-03-22 17:36:00,
2013-03-22 12:51:00,48.9,44.0,29.80,North,350,2.0,10.0,84,0.00,,,0.00,weatherlink.com 1.10,2013-03-22 17:51:00,
2013-03-22 13:06:00,48.3,44.0,29.82,NW,325,7.0,14.0,85,0.00,,,0.00,weatherlink.com 1.10,2013-03-22 18:06:00,
2013-03-22 13:21:00,48.2,44.0,29.82,NNW,327,4.0,11.0,86,0.00,,,0.00,weatherlink.com 1.10,2013-03-22 18:21:00,
2013-03-22 13:36:00,48.0,44.0,29.82,NW,323,5.0,11.0,86,0.00,,,0.00,weatherlink.com 1.10,2013-03-22 18:36:00,
2013-03-22 13:51:00,48.4,44.0,29.82,NE,55,6.0,9.0,86,0.00,,,0.00,weatherlink.com 1.10,2013-03-22 18:51:00,
2013-03-22 14:07:00,48.5,44.0,29.81,NNW,347,9.0,13.0,85,0.00,,,0.00,weatherlink.com 1.10,2013-03-22 19:07:00,
2013-03-22 14:21:00,47.9,44.0,29.80,North,359,10.0,13.0,86,0.00,,,0.00,weatherlink.com 1.10,2013-03-22 19:21:00,
2013-03-22 14:36:00,47.7,44.0,29.80,North,11,2.0,13.0,86,0.00,,,0.00,weatherlink.com 1.10,2013-03-22 19:36:00,
2013-03-22 14:51:00,48.4,44.0,29.79,WNW,288,5.0,13.0,86,0.00,,,0.00,weatherlink.com 1.10,2013-03-22 19:51:00,
2013-03-22 15:06:00,48.9,44.0,29.79,NNW,335,4.0,12.0,84,0.00,,,0.00,weatherlink.com 1.10,2013-03-22 20:06:00,
2013-03-22 15:21:00,48.4,44.0,29.79,NNE,25,6.0,11.0,85,0.00,,,0.00,weatherlink.com 1.10,2013-03-22 20:21:00,
2013-03-22 15:36:00,48.2,44.0,29.78,NNE,13,2.0,12.0,85,0.00,,,0.00,weatherlink.com 1.10,2013-03-22 20:36:00,
2013-03-22 15:51:00,48.5,44.0,29.78,North,11,6.0,13.0,85,0.00,,,0.00,weatherlink.com 1.10,2013-03-22 20:51:00,
2013-03-22 16:06:00,49.0,44.0,29.79,ENE,70,2.0,13.0,83,0.00,,,0.00,weatherlink.com 1.10,2013-03-22 21:06:00,
2013-03-22 16:21:00,49.1,44.0,29.79,NNE,26,8.0,9.0,83,0.00,,,0.00,weatherlink.com 1.10,2013-03-22 21:21:00,
2013-03-22 16:36:00,48.6,44.0,29.80,North,352,6.0,10.0,84,0.00,,,0.00,weatherlink.com 1.10,2013-03-22 21:36:00,
2013-03-22 16:51:00,48.4,44.0,29.80,NW,320,6.0,9.0,84,0.00,,,0.00,weatherlink.com 1.10,2013-03-22 21:51:00,
2013-03-22 17:06:00,48.3,44.0,29.81,NNW,343,6.0,11.0,84,0.00,,,0.00,weatherlink.com 1.10,2013-03-22 22:06:00,
2013-03-22 17:36:00,48.1,44.0,29.82,NW,313,3.0,11.0,84,0.00,,,0.00,weatherlink.com 1.10,2013-03-22 22:36:00,
2013-03-22 17:51:00,47.7,44.0,29.82,North,3,7.0,11.0,86,0.00,,,0.00,weatherlink.com 1.10,2013-03-22 22:51:00,
2013-03-22 18:06:00,47.2,44.0,29.82,NE,35,7.0,8.0,88,0.00,,,0.00,weatherlink.com 1.10,2013-03-22 23:06:00,
2013-03-22 18:21:00,47.5,44.0,29.82,NNW,328,3.0,8.0,87,0.00,,,0.00,weatherlink.com 1.10,2013-03-22 23:21:00,
2013-03-22 18:37:00,46.8,44.0,29.83,NNW,340,3.0,11.0,89,0.00,,,0.00,weatherlink.com 1.10,2013-03-22 23:37:00,
2013-03-22 18:52:00,46.6,44.0,29.83,NE,34,5.0,9.0,90,0.00,,,0.00,weatherlink.com 1.10,2013-03-22 23:52:00,
2013-03-22 19:07:00,46.6,44.0,29.83,NE,41,3.0,10.0,92,0.00,,,0.00,weatherlink.com 1.10,2013-03-23 00:07:00,
2013-03-22 19:22:00,46.5,44.0,29.83,NE,45,8.0,8.0,92,0.00,,,0.00,weatherlink.com 1.10,2013-03-23 00:22:00,
2013-03-22 19:37:00,46.5,45.0,29.83,NE,53,3.0,6.0,93,0.00,,,0.00,weatherlink.com 1.10,2013-03-23 00:37:00,
2013-03-22 19:52:00,46.5,45.0,29.83,NNE,32,4.0,5.0,93,0.00,,,0.00,weatherlink.com 1.10,2013-03-23 00:52:00,
2013-03-22 20:07:00,46.2,44.0,29.83,NNE,23,4.0,8.0,93,0.00,,,0.00,weatherlink.com 1.10,2013-03-23 01:07:00,
2013-03-22 20:22:00,46.2,44.0,29.83,ENE,60,3.0,6.0,93,0.00,,,0.00,weatherlink.com 1.10,2013-03-23 01:22:00,
2013-03-22 20:37:00,46.2,44.0,29.83,ENE,75,4.0,5.0,93,0.00,,,0.00,weatherlink.com 1.10,2013-03-23 01:37:00,
2013-03-22 20:52:00,46.3,44.0,29.83,ENE,57,3.0,6.0,93,0.00,,,0.00,weatherlink.com 1.10,2013-03-23 01:52:00,
2013-03-22 21:07:00,46.4,44.0,29.83,NE,50,1.0,7.0,92,0.00,,,0.00,weatherlink.com 1.10,2013-03-23 02:07:00,
2013-03-22 21:22:00,46.5,44.0,29.85,NNW,335,3.0,6.0,92,0.00,,,0.00,weatherlink.com 1.10,2013-03-23 02:22:00,
2013-03-22 21:37:00,46.8,44.0,29.86,NNW,348,2.0,6.0,91,0.00,,,0.00,weatherlink.com 1.10,2013-03-23 02:37:00,
2013-03-22 21:52:00,46.8,44.0,29.86,ENE,75,3.0,7.0,90,0.00,,,0.00,weatherlink.com 1.10,2013-03-23 02:52:00,
2013-03-22 22:07:00,46.9,44.0,29.88,NNE,26,6.0,8.0,90,0.00,,,0.00,weatherlink.com 1.10,2013-03-23 03:07:00,
2013-03-22 22:22:00,47.0,44.0,29.87,NNE,18,5.0,7.0,90,0.00,,,0.00,weatherlink.com 1.10,2013-03-23 03:22:00,
2013-03-22 22:37:00,47.0,44.0,29.88,NNE,27,6.0,9.0,90,0.00,,,0.00,weatherlink.com 1.10,2013-03-23 03:37:00,
2013-03-22 22:52:00,47.0,44.0,29.87,NE,43,5.0,7.0,90,0.00,,,0.00,weatherlink.com 1.10,2013-03-23 03:52:00,
2013-03-22 23:07:00,46.9,44.0,29.87,NE,49,5.0,9.0,90,0.00,,,0.00,weatherlink.com 1.10,2013-03-23 04:07:00,
2013-03-22 23:22:00,46.9,44.0,29.86,NE,51,7.0,9.0,90,0.00,,,0.00,weatherlink.com 1.10,2013-03-23 04:22:00,
2013-03-22 23:37:00,46.9,44.0,29.86,ENE,64,8.0,9.0,89,0.00,,,0.00,weatherlink.com 1.10,2013-03-23 04:37:00,
2013-03-22 23:52:00,46.8,44.0,29.86,ENE,68,3.0,8.0,90,0.00,,,0.00,weatherlink.com 1.10,2013-03-23 04:52:00,